St. Augustine, FL

2:32 PM EDT on May 24, 2018 (GMT -0400)
Saint Augustine

Weather History for KSGJ - September, 2014

Change the Weather History Date:

Saturday, September 13, 2014

  Actual Average Record
Temperature  
Mean Temperature 82 °F -  
Max Temperature 90 °F 83 °F 94 °F (1984)
Min Temperature 75 °F 71 °F 64 °F (1998)
Cooling Degree Days 17    
Growing Degree Days 32 (Base 50)    
Moisture  
Dew Point 74 °F    
Average Humidity 78    
Maximum Humidity 94    
Minimum Humidity 61    
Precipitation  
Precipitation 0.00 in - - ()
Sea Level Pressure  
Sea Level Pressure 30.05 in    
Wind  
Wind Speed 5 mph (SSE)    
Max Wind Speed 16 mph    
Max Gust Speed -    
Visibility 10 miles    
Events      
Averages and records for this station are not official NWS values.
T = Trace of Precipitation, MM = Missing Value Source: NWS Daily Summary

Daily Weather History Graph

Daily Weather History Graph

Search for Another Location

Airport or City:

Astronomy

Sep. 13, 2014 Rise Set
Actual Time 7:08 AM EDT 7:33 PM EDT
Civil Twilight 6:44 AM EDT 7:57 PM EDT
Nautical Twilight 6:16 AM EDT 8:25 PM EDT
Astronomical Twilight 5:48 AM EDT 8:53 PM EDT
Moon 11:00 PM EDT (9/13) 11:52 AM EDT (9/13)
Length of Visible Light 13h 12m
Length of Day
12h 24m
Waning Gibbous, 74% of the Moon is Illuminated
Sep 13
Waning Gibbous
Sep 15
Last Quarter
Sep 24
New
Oct 1
First Quarter
Oct 8
Full

Hourly Weather History & Observations

Time (EDT) Temp. Heat Index Dew Point Humidity Pressure Visibility Wind Dir Wind Speed Gust Speed Precip Events Conditions
12:58 AM 80.1 °F 85.4 °F 75.9 °F 87% 30.03 in 10.0 mi Calm Calm - N/A   Clear
1:58 AM 79.0 °F - 75.0 °F 88% 30.02 in 10.0 mi Calm Calm - N/A   Clear
2:58 AM 78.1 °F - 73.9 °F 87% 30.01 in 10.0 mi Calm Calm - N/A   Partly Cloudy
3:52 AM 77.0 °F - 73.4 °F 89% 30.01 in 10.0 mi SSW 3.5 mph - N/A   Mostly Cloudy
3:58 AM 77.0 °F - 73.9 °F 90% 30.01 in 10.0 mi SSW 4.6 mph - N/A   Mostly Cloudy
4:02 AM 78.8 °F - 75.2 °F 89% 30.01 in 10.0 mi SSW 4.6 mph - N/A   Scattered Clouds
4:58 AM 77.0 °F - 73.9 °F 90% 30.03 in 10.0 mi Calm Calm - N/A   Partly Cloudy
5:58 AM 75.9 °F - 73.9 °F 94% 30.04 in 10.0 mi SSW 3.5 mph - N/A   Partly Cloudy
6:58 AM 75.9 °F - 73.9 °F 94% 30.04 in 10.0 mi South 5.8 mph - N/A   Clear
7:58 AM 77.0 °F - 73.9 °F 90% 30.06 in 10.0 mi South 5.8 mph - N/A   Clear
8:58 AM 81.0 °F 86.2 °F 73.9 °F 79% 30.06 in 10.0 mi South 4.6 mph - N/A   Clear
9:58 AM 84.0 °F 90.2 °F 73.0 °F 69% 30.08 in 10.0 mi South 5.8 mph - N/A   Clear
10:58 AM 86.0 °F 93.0 °F 73.0 °F 65% 30.09 in 10.0 mi SSW 8.1 mph - N/A   Clear
11:04 AM 86.0 °F 93.4 °F 73.4 °F 66% 30.09 in 10.0 mi SSW 8.1 mph - N/A   Partly Cloudy
11:58 AM 87.1 °F 94.5 °F 73.0 °F 63% 30.08 in 10.0 mi Variable 6.9 mph - N/A   Scattered Clouds
12:58 PM 89.1 °F 98.0 °F 73.9 °F 61% 30.06 in 10.0 mi East 6.9 mph - N/A   Scattered Clouds
1:58 PM 88.0 °F 98.5 °F 75.9 °F 67% 30.06 in 10.0 mi ESE 12.7 mph - N/A   Partly Cloudy
2:58 PM 89.1 °F 100.2 °F 75.9 °F 65% 30.04 in 10.0 mi ESE 15.0 mph - N/A   Clear
3:58 PM 89.1 °F 98.0 °F 73.9 °F 61% 30.01 in 10.0 mi SE 16.1 mph - N/A   Clear
4:58 PM 87.1 °F 95.4 °F 73.9 °F 65% 30.02 in 10.0 mi ESE 16.1 mph - N/A   Clear
5:58 PM 86.0 °F 95.1 °F 75.0 °F 70% 30.03 in 10.0 mi SE 15.0 mph - N/A   Clear
6:58 PM 84.0 °F 91.2 °F 73.9 °F 72% 30.04 in 10.0 mi SE 11.5 mph - N/A   Clear
7:58 PM 82.0 °F 88.6 °F 75.0 °F 79% 30.06 in 10.0 mi SE 9.2 mph - N/A   Partly Cloudy
8:58 PM 82.0 °F 88.6 °F 75.0 °F 79% 30.09 in 10.0 mi SE 9.2 mph - N/A   Partly Cloudy
9:58 PM 82.0 °F 87.9 °F 73.9 °F 76% 30.09 in 10.0 mi SSE 12.7 mph - N/A   Clear
10:58 PM 82.0 °F 88.6 °F 75.0 °F 79% 30.11 in 10.0 mi SSE 8.1 mph - N/A   Partly Cloudy
11:58 PM 82.0 °F 88.6 °F 75.0 °F 79% 30.12 in 10.0 mi SSE 8.1 mph - N/A   Clear